| time (UTC) | temp F | wind direction | speed MPH | gust MPH | rain 1hr in | rain 24hr in | rain mn in | humidity % | barometer mb |
| 20260508102002 | 29 | 121 | 0.0 | 0.0 | 0.00 | 0.00 | 0.00 | 99 | 1018.5 |
| 20260508101459 | 29 | 121 | 0.0 | 0.0 | 0.00 | 0.00 | 0.00 | 99 | 1018.8 |
| 20260508100956 | 29 | 121 | 0.0 | 0.0 | 0.00 | 0.00 | 0.00 | 99 | 1018.5 |
| 20260508100455 | 29 | 121 | 0.0 | 0.0 | 0.00 | 0.00 | 0.00 | 99 | 1018.5 |
| 20260508095950 | 29 | 121 | 0.0 | 0.0 | 0.00 | 0.00 | 0.00 | 99 | 1018.5 |
| 20260508095448 | 29 | 121 | 0.0 | 0.0 | 0.00 | 0.00 | 0.00 | 99 | 1018.6 |
| 20260508094945 | 29 | 121 | 0.0 | 0.0 | 0.00 | 0.00 | 0.00 | 99 | 1018.4 |
| 20260508094442 | 29 | 121 | 0.0 | 0.0 | 0.00 | 0.00 | 0.00 | 99 | 1018.3 |
| 20260508093938 | 29 | 120 | 0.0 | 0.0 | 0.00 | 0.00 | 0.00 | 99 | 1018.5 |
| 20260508093436 | 30 | 120 | 0.0 | 0.0 | 0.00 | 0.00 | 0.00 | 99 | 1018.4 |
| 20260508092934 | 29 | 120 | 0.0 | 0.0 | 0.00 | 0.00 | 0.00 | 99 | 1018.3 |
| 20260508092432 | 29 | 120 | 0.0 | 0.0 | 0.00 | 0.00 | 0.00 | 99 | 1018.5 |
| 20260508091930 | 30 | 120 | 0.0 | 0.0 | 0.00 | 0.00 | 0.00 | 99 | 1018.4 |
| 20260508091426 | 30 | 120 | 0.0 | 0.0 | 0.00 | 0.00 | 0.00 | 99 | 1018.1 |
| 20260508090923 | 30 | 120 | 0.0 | 0.0 | 0.00 | 0.00 | 0.00 | 99 | 1018.2 |
| 20260508090422 | 30 | 120 | 0.0 | 0.0 | 0.00 | 0.00 | 0.00 | 99 | 1018.4 |
| 20260508085917 | 30 | 120 | 0.0 | 0.0 | 0.00 | 0.00 | 0.00 | 99 | 1018.1 |
| 20260508085414 | 30 | 120 | 0.0 | 0.0 | 0.00 | 0.00 | 0.00 | 99 | 1018.0 |
| 20260508084911 | 31 | 120 | 0.0 | 0.0 | 0.00 | 0.00 | 0.00 | 99 | 1018.2 |
| 20260508084408 | 31 | 120 | 0.0 | 0.0 | 0.00 | 0.00 | 0.00 | 99 | 1018.0 |
| 20260508083906 | 30 | 120 | 0.0 | 0.0 | 0.00 | 0.00 | 0.00 | 99 | 1017.9 |
| 20260508083403 | 30 | 120 | 0.0 | 0.0 | 0.00 | 0.00 | 0.00 | 99 | 1018.1 |
| 20260508082902 | 31 | 120 | 0.0 | 0.0 | 0.00 | 0.00 | 0.00 | 99 | 1018.0 |
| 20260508082400 | 31 | 120 | 0.0 | 0.0 | 0.00 | 0.00 | 0.00 | 99 | 1018.1 |
| 20260508081857 | 31 | 120 | 0.0 | 0.0 | 0.00 | 0.00 | 0.00 | 99 | 1018.0 |
| 20260508081353 | 31 | 120 | 0.0 | 0.0 | 0.00 | 0.00 | 0.00 | 99 | 1018.0 |
| 20260508080850 | 31 | 120 | 0.0 | 0.0 | 0.00 | 0.00 | 0.00 | 99 | 1018.1 |
| 20260508080349 | 31 | 117 | 0.0 | 0.0 | 0.00 | 0.00 | 0.00 | 99 | 1018.2 |
| 20260508075845 | 31 | 117 | 0.0 | 0.0 | 0.00 | 0.00 | 0.00 | 98 | 1018.0 |
| 20260508075342 | 32 | 117 | 0.0 | 0.0 | 0.00 | 0.00 | 0.00 | 98 | 1018.1 |
| 20260508074840 | 32 | 117 | 0.0 | 0.0 | 0.00 | 0.00 | 0.00 | 98 | 1018.0 |
| 20260508074337 | 33 | 117 | 0.0 | 0.0 | 0.00 | 0.00 | 0.00 | 98 | 1017.9 |
| 20260508073834 | 32 | 117 | 0.0 | 0.0 | 0.00 | 0.00 | 0.00 | 98 | 1017.9 |
| 20260508073332 | 33 | 111 | 0.0 | 0.0 | 0.00 | 0.00 | 0.00 | 98 | 1017.8 |
| 20260508072828 | 32 | 111 | 0.0 | 0.0 | 0.00 | 0.00 | 0.00 | 98 | 1017.9 |
| 20260508072325 | 32 | 111 | 0.0 | 0.0 | 0.00 | 0.00 | 0.00 | 97 | 1017.7 |
| 20260508071822 | 33 | 111 | 0.0 | 0.0 | 0.00 | 0.00 | 0.00 | 97 | 1017.9 |
| 20260508071320 | 33 | 111 | 0.0 | 0.0 | 0.00 | 0.00 | 0.00 | 97 | 1017.8 |
| 20260508070817 | 33 | 111 | 0.0 | 0.0 | 0.00 | 0.00 | 0.00 | 96 | 1017.8 |
| 20260508070316 | 33 | 111 | 0.0 | 0.0 | 0.00 | 0.00 | 0.00 | 96 | 1017.7 |
| 20260508065813 | 34 | 111 | 0.0 | 0.0 | 0.00 | 0.00 | 0.00 | 96 | 1017.8 |
| 20260508065310 | 33 | 111 | 0.0 | 0.0 | 0.00 | 0.00 | 0.00 | 95 | 1017.8 |
| 20260508064808 | 34 | 111 | 0.0 | 0.0 | 0.00 | 0.00 | 0.00 | 95 | 1017.9 |
| 20260508064306 | 34 | 111 | 0.0 | 0.0 | 0.00 | 0.00 | 0.00 | 95 | 1017.9 |
| 20260508063803 | 34 | 111 | 0.0 | 0.0 | 0.00 | 0.00 | 0.00 | 94 | 1017.9 |
| 20260508063301 | 35 | 111 | 0.0 | 0.0 | 0.00 | 0.00 | 0.00 | 93 | 1018.1 |
| 20260508062758 | 35 | 111 | 0.0 | 0.0 | 0.00 | 0.00 | 0.00 | 93 | 1018.2 |
| 20260508062256 | 35 | 109 | 0.0 | 0.0 | 0.00 | 0.00 | 0.00 | 93 | 1018.0 |
| 20260508061752 | 35 | 115 | 0.0 | 0.0 | 0.00 | 0.00 | 0.00 | 92 | 1018.2 |
| 20260508061249 | 36 | 120 | 0.0 | 0.0 | 0.00 | 0.00 | 0.00 | 91 | 1018.1 |
| 20260508060746 | 36 | 129 | 0.0 | 0.0 | 0.00 | 0.00 | 0.00 | 90 | 1018.0 |
| 20260508060244 | 36 | 133 | 0.0 | 0.0 | 0.00 | 0.00 | 0.00 | 90 | 1018.0 |
| 20260508055739 | 37 | 144 | 0.0 | 0.0 | 0.00 | 0.00 | 0.00 | 89 | 1018.0 |
| 20260508055237 | 37 | 108 | 0.0 | 0.0 | 0.00 | 0.00 | 0.00 | 88 | 1018.0 |
| 20260508054733 | 37 | 120 | 0.0 | 0.0 | 0.00 | 0.00 | 0.00 | 87 | 1018.0 |
| 20260508054231 | 38 | 185 | 0.0 | 1.0 | 0.00 | 0.00 | 0.00 | 88 | 1017.8 |
| 20260508053728 | 38 | 197 | 0.0 | 0.0 | 0.00 | 0.00 | 0.00 | 88 | 1018.0 |
| 20260508053225 | 38 | 198 | 0.0 | 0.0 | 0.00 | 0.00 | 0.00 | 87 | 1017.9 |
| 20260508052722 | 38 | 198 | 0.0 | 0.0 | 0.00 | 0.00 | 0.00 | 86 | 1018.0 |
| 20260508052219 | 38 | 198 | 0.0 | 0.0 | 0.00 | 0.00 | 0.00 | 88 | 1018.0 |
| 20260508051715 | 39 | 198 | 0.0 | 0.0 | 0.00 | 0.00 | 0.00 | 86 | 1017.9 |
| 20260508051211 | 38 | 198 | 0.0 | 0.0 | 0.00 | 0.00 | 0.00 | 85 | 1017.5 |
| 20260508050708 | 38 | 198 | 0.0 | 1.0 | 0.00 | 0.00 | 0.00 | 87 | 1017.8 |
| 20260508050206 | 38 | 242 | 0.0 | 0.0 | 0.00 | 0.00 | 0.00 | 88 | 1017.8 |
| 20260508045706 | 38 | 242 | 0.0 | 0.0 | 0.00 | 0.00 | 0.00 | 87 | 1017.8 |
| 20260508045204 | 38 | 243 | 0.0 | 0.0 | 0.00 | 0.00 | 0.00 | 89 | 1017.8 |
| 20260508044701 | 38 | 245 | 0.0 | 0.0 | 0.00 | 0.00 | 0.00 | 89 | 1017.9 |
| 20260508044157 | 38 | 245 | 0.0 | 0.0 | 0.00 | 0.00 | 0.00 | 89 | 1017.5 |
| 20260508043653 | 39 | 245 | 0.0 | 0.0 | 0.00 | 0.00 | 0.00 | 89 | 1017.7 |
| 20260508043152 | 38 | 245 | 0.0 | 0.0 | 0.00 | 0.00 | 0.00 | 89 | 1017.5 |
| 20260508042648 | 39 | 245 | 0.0 | 0.0 | 0.00 | 0.00 | 0.00 | 87 | 1017.7 |
| 20260508042145 | 40 | 245 | 0.0 | 0.0 | 0.00 | 0.00 | 0.00 | 86 | 1017.7 |
| 20260508041641 | 40 | 245 | 0.0 | 0.0 | 0.00 | 0.00 | 0.00 | 84 | 1017.7 |
| 20260508041138 | 41 | 246 | 0.0 | 0.0 | 0.00 | 0.00 | 0.00 | 81 | 1017.5 |
| 20260508040635 | 41 | 245 | 0.0 | 0.0 | 0.00 | 0.00 | 0.00 | 79 | 1017.5 |
| 20260508040132 | 41 | 245 | 0.0 | 0.0 | 0.00 | 0.00 | 0.00 | 77 | 1017.3 |
| 20260508035629 | 42 | 245 | 0.0 | 0.0 | 0.00 | 0.00 | 0.00 | 77 | 1017.5 |
| 20260508035127 | 43 | 245 | 0.0 | 0.0 | 0.00 | 0.00 | 0.00 | 76 | 1017.4 |
| 20260508034624 | 43 | 260 | 0.0 | 3.0 | 0.00 | 0.00 | 0.00 | 74 | 1017.1 |
| 20260508034121 | 43 | 285 | 1.0 | 2.0 | 0.00 | 0.00 | 0.00 | 76 | 1017.2 |
| 20260508033618 | 43 | 237 | 1.0 | 3.0 | 0.00 | 0.00 | 0.00 | 73 | 1017.3 |
| 20260508033116 | 43 | 165 | 0.0 | 0.0 | 0.00 | 0.00 | 0.00 | 76 | 1017.3 |
| 20260508032612 | 44 | 251 | 0.0 | 2.0 | 0.00 | 0.00 | 0.00 | 74 | 1017.5 |
| 20260508032110 | 44 | 174 | 0.0 | 1.0 | 0.00 | 0.00 | 0.00 | 76 | 1017.3 |
| 20260508031607 | 43 | 179 | 0.0 | 3.0 | 0.00 | 0.00 | 0.00 | 75 | 1017.1 |
| 20260508031103 | 44 | 195 | 0.0 | 0.0 | 0.00 | 0.00 | 0.00 | 77 | 1017.3 |
| 20260508030559 | 43 | 162 | 0.0 | 1.0 | 0.00 | 0.00 | 0.00 | 79 | 1017.2 |
| 20260508030058 | 42 | 140 | 0.0 | 1.0 | 0.00 | 0.00 | 0.00 | 83 | 1017.0 |
| 20260508025553 | 43 | 198 | 0.0 | 1.0 | 0.00 | 0.00 | 0.00 | 81 | 1016.9 |
| 20260508025050 | 42 | 196 | 0.0 | 0.0 | 0.00 | 0.00 | 0.00 | 83 | 1017.0 |
| 20260508024546 | 43 | 185 | 0.0 | 0.0 | 0.00 | 0.00 | 0.00 | 81 | 1016.9 |
| 20260508024044 | 43 | 185 | 0.0 | 0.0 | 0.00 | 0.00 | 0.00 | 80 | 1017.1 |
| 20260508023540 | 44 | 185 | 0.0 | 0.0 | 0.00 | 0.00 | 0.00 | 78 | 1017.1 |
| 20260508023038 | 45 | 234 | 0.0 | 0.0 | 0.00 | 0.00 | 0.00 | 75 | 1017.0 |
| 20260508022533 | 45 | 137 | 1.0 | 2.0 | 0.00 | 0.00 | 0.00 | 75 | 1016.7 |
| 20260508022031 | 45 | 173 | 0.0 | 0.0 | 0.00 | 0.00 | 0.00 | 78 | 1016.7 |
| 20260508021526 | 45 | 169 | 0.0 | 0.0 | 0.00 | 0.00 | 0.00 | 80 | 1016.7 |
| 20260508021022 | 45 | 217 | 0.0 | 0.0 | 0.00 | 0.00 | 0.00 | 76 | 1016.5 |
| 20260508020520 | 46 | 319 | 1.0 | 2.0 | 0.00 | 0.00 | 0.00 | 74 | 1016.3 |
| 20260508020018 | 46 | 199 | 0.0 | 2.0 | 0.00 | 0.00 | 0.00 | 73 | 1016.5 |
| 20260508015515 | 46 | 251 | 1.0 | 2.0 | 0.00 | 0.00 | 0.00 | 75 | 1016.3 |
| 20260508015012 | 46 | 153 | 0.0 | 7.0 | 0.00 | 0.00 | 0.00 | 74 | 1016.5 |
| 20260508014508 | 46 | 189 | 0.0 | 3.0 | 0.00 | 0.00 | 0.00 | 75 | 1016.1 |
| 20260508014004 | 46 | 215 | 1.0 | 3.0 | 0.00 | 0.00 | 0.00 | 74 | 1016.3 |
| 20260508013500 | 47 | 193 | 0.0 | 3.0 | 0.00 | 0.00 | 0.00 | 74 | 1016.1 |
| 20260508012958 | 46 | 170 | 0.0 | 2.0 | 0.00 | 0.00 | 0.00 | 78 | 1016.0 |
| 20260508012455 | 46 | 175 | 0.0 | 1.0 | 0.00 | 0.00 | 0.00 | 81 | 1016.1 |
| 20260508011952 | 46 | 192 | 0.0 | 0.0 | 0.00 | 0.00 | 0.00 | 78 | 1015.9 |
| 20260508011450 | 47 | 172 | 0.0 | 1.0 | 0.00 | 0.00 | 0.00 | 75 | 1015.7 |
| 20260508010947 | 47 | 151 | 0.0 | 1.0 | 0.00 | 0.00 | 0.00 | 76 | 1015.7 |
| 20260508010444 | 47 | 171 | 0.0 | 0.0 | 0.00 | 0.00 | 0.00 | 74 | 1015.9 |
| 20260508005941 | 48 | 133 | 1.0 | 3.0 | 0.00 | 0.00 | 0.00 | 72 | 1015.7 |
| 20260508005438 | 48 | 224 | 0.0 | 1.0 | 0.00 | 0.00 | 0.00 | 71 | 1015.7 |
| 20260508004934 | 49 | 168 | 0.0 | 0.0 | 0.00 | 0.00 | 0.00 | 70 | 1015.6 |
| 20260508004431 | 49 | 233 | 0.0 | 3.0 | 0.00 | 0.00 | 0.00 | 70 | 1015.8 |
| 20260508003927 | 49 | 240 | 1.0 | 2.0 | 0.00 | 0.00 | 0.00 | 67 | 1015.7 |
| 20260508003424 | 50 | 242 | 2.0 | 3.0 | 0.00 | 0.00 | 0.00 | 66 | 1015.7 |
| 20260508002921 | 50 | 264 | 1.0 | 3.0 | 0.00 | 0.00 | 0.00 | 65 | 1015.7 |
| 20260508002418 | 50 | 246 | 2.0 | 6.0 | 0.00 | 0.00 | 0.00 | 63 | 1015.7 |
| 20260508001914 | 50 | 236 | 2.0 | 3.0 | 0.00 | 0.00 | 0.00 | 64 | 1015.5 |
| 20260508001410 | 51 | 243 | 2.0 | 2.0 | 0.00 | 0.00 | 0.00 | 64 | 1015.4 |
| 20260508000907 | 51 | 270 | 1.0 | 7.0 | 0.00 | 0.00 | 0.00 | 65 | 1015.5 |
| 20260508000404 | 51 | 271 | 2.0 | 3.0 | 0.00 | 0.00 | 0.00 | 63 | 1015.4 |
| 20260507235900 | 51 | 274 | 3.0 | 7.0 | 0.00 | 0.00 | 0.00 | 62 | 1015.2 |
| 20260507235357 | 52 | 287 | 3.0 | 7.0 | 0.00 | 0.00 | 0.00 | 61 | 1015.3 |
| 20260507234854 | 52 | 314 | 3.0 | 9.0 | 0.00 | 0.00 | 0.00 | 60 | 1015.4 |
| 20260507234351 | 53 | 302 | 7.0 | 10.0 | 0.00 | 0.00 | 0.00 | 60 | 1015.3 |
| 20260507233847 | 53 | 244 | 4.0 | 8.0 | 0.00 | 0.00 | 0.00 | 60 | 1015.3 |
| 20260507233345 | 53 | 222 | 3.0 | 7.0 | 0.00 | 0.00 | 0.00 | 61 | 1015.1 |
| 20260507232843 | 52 | 304 | 4.0 | 6.0 | 0.00 | 0.00 | 0.00 | 62 | 1015.2 |
| 20260507232339 | 53 | 291 | 2.0 | 4.0 | 0.00 | 0.00 | 0.00 | 62 | 1015.0 |
| 20260507231837 | 53 | 229 | 6.0 | 9.0 | 0.00 | 0.00 | 0.00 | 60 | 1015.2 |
| 20260507231333 | 54 | 290 | 4.0 | 9.0 | 0.00 | 0.00 | 0.00 | 60 | 1015.0 |
| 20260507230829 | 55 | 263 | 2.0 | 8.0 | 0.00 | 0.00 | 0.00 | 61 | 1015.2 |
| 20260507230327 | 55 | 331 | 7.0 | 10.0 | 0.00 | 0.00 | 0.00 | 60 | 1015.1 |
| 20260507225827 | 55 | 272 | 4.0 | 7.0 | 0.00 | 0.00 | 0.00 | 60 | 1015.0 |
| 20260507225323 | 54 | 328 | 3.0 | 9.0 | 0.00 | 0.00 | 0.00 | 61 | 1014.7 |
| 20260507224819 | 55 | 290 | 4.0 | 8.0 | 0.00 | 0.00 | 0.00 | 62 | 1015.0 |
| 20260507224316 | 55 | 293 | 3.0 | 3.0 | 0.00 | 0.00 | 0.00 | 62 | 1014.8 |
| 20260507223812 | 53 | 303 | 4.0 | 7.0 | 0.00 | 0.00 | 0.00 | 64 | 1014.8 |
| 20260507223308 | 54 | 318 | 3.0 | 6.0 | 0.00 | 0.00 | 0.00 | 64 | 1014.7 |
| 20260507222806 | 55 | 289 | 5.0 | 8.0 | 0.00 | 0.00 | 0.00 | 64 | 1014.7 |
| 20260507222305 | 57 | 224 | 6.0 | 9.0 | 0.00 | 0.00 | 0.00 | 59 | 1014.6 |
| 20260507221759 | 56 | 37 | 3.0 | 6.0 | 0.00 | 0.00 | 0.00 | 60 | 1014.4 |
| 20260507221255 | 56 | 295 | 4.0 | 8.0 | 0.00 | 0.00 | 0.00 | 61 | 1014.4 |
| 20260507220751 | 56 | 311 | 2.0 | 7.0 | 0.00 | 0.00 | 0.00 | 61 | 1014.4 |
| 20260507220250 | 55 | 307 | 3.0 | 11.0 | 0.00 | 0.00 | 0.00 | 63 | 1014.4 |
| 20260507215746 | 56 | 243 | 7.0 | 9.0 | 0.00 | 0.00 | 0.00 | 60 | 1014.2 |
| 20260507215244 | 57 | 250 | 3.0 | 7.0 | 0.00 | 0.00 | 0.00 | 60 | 1014.3 |
| 20260507214740 | 57 | 281 | 4.0 | 8.0 | 0.00 | 0.00 | 0.00 | 61 | 1014.4 |
| 20260507214238 | 57 | 297 | 3.0 | 9.0 | 0.00 | 0.00 | 0.00 | 59 | 1014.3 |
| 20260507213733 | 56 | 299 | 6.0 | 8.0 | 0.00 | 0.00 | 0.00 | 59 | 1014.2 |
| 20260507213230 | 57 | 269 | 2.0 | 4.0 | 0.00 | 0.00 | 0.00 | 61 | 1014.2 |
| 20260507212726 | 55 | 278 | 4.0 | 6.0 | 0.00 | 0.00 | 0.00 | 64 | 1014.3 |
| 20260507212223 | 54 | 256 | 1.0 | 7.0 | 0.00 | 0.00 | 0.00 | 66 | 1014.1 |
| 20260507211720 | 54 | 272 | 2.0 | 4.0 | 0.00 | 0.00 | 0.00 | 64 | 1013.9 |
| 20260507211215 | 56 | 262 | 6.0 | 14.0 | 0.00 | 0.00 | 0.00 | 62 | 1014.0 |
| 20260507210713 | 56 | 207 | 2.0 | 4.0 | 0.00 | 0.00 | 0.00 | 63 | 1013.8 |
| 20260507210210 | 56 | 255 | 2.0 | 9.0 | 0.00 | 0.00 | 0.00 | 64 | 1014.1 |
| 20260507205706 | 54 | 244 | 1.0 | 4.0 | 0.00 | 0.00 | 0.00 | 66 | 1014.1 |
| 20260507205203 | 53 | 287 | 4.0 | 6.0 | 0.00 | 0.00 | 0.00 | 66 | 1014.1 |
| 20260507204659 | 53 | 303 | 2.0 | 10.0 | 0.00 | 0.00 | 0.00 | 66 | 1013.9 |
| 20260507204157 | 56 | 275 | 3.0 | 8.0 | 0.00 | 0.00 | 0.00 | 64 | 1014.0 |
| 20260507203655 | 55 | 264 | 4.0 | 6.0 | 0.00 | 0.00 | 0.00 | 67 | 1013.8 |
| 20260507203152 | 54 | 303 | 4.0 | 7.0 | 0.00 | 0.00 | 0.00 | 66 | 1013.9 |
| 20260507202647 | 55 | 285 | 6.0 | 8.0 | 0.00 | 0.00 | 0.00 | 64 | 1014.0 |
| 20260507202144 | 54 | 193 | 3.0 | 4.0 | 0.00 | 0.00 | 0.00 | 68 | 1014.1 |
| 20260507201639 | 55 | 163 | 1.0 | 4.0 | 0.00 | 0.00 | 0.00 | 68 | 1014.0 |
| 20260507201136 | 55 | 326 | 4.0 | 6.0 | 0.00 | 0.00 | 0.00 | 64 | 1014.1 |
| 20260507200632 | 55 | 301 | 5.0 | 8.0 | 0.00 | 0.00 | 0.00 | 63 | 1013.9 |
| 20260507200128 | 54 | 351 | 2.0 | 6.0 | 0.00 | 0.00 | 0.00 | 68 | 1014.2 |
| 20260507195625 | 53 | 263 | 5.0 | 6.0 | 0.00 | 0.00 | 0.00 | 69 | 1014.4 |
| 20260507195123 | 52 | 304 | 1.0 | 3.0 | 0.00 | 0.00 | 0.00 | 71 | 1014.3 |
| 20260507194619 | 53 | 284 | 4.0 | 7.0 | 0.00 | 0.00 | 0.00 | 70 | 1014.5 |
| 20260507194114 | 53 | 258 | 6.0 | 8.0 | 0.00 | 0.00 | 0.00 | 69 | 1014.5 |
| 20260507193612 | 54 | 24 | 2.0 | 3.0 | 0.00 | 0.00 | 0.00 | 69 | 1014.4 |
| 20260507193109 | 53 | 308 | 1.0 | 4.0 | 0.00 | 0.00 | 0.00 | 69 | 1014.6 |
| 20260507192605 | 53 | 299 | 7.0 | 10.0 | 0.00 | 0.00 | 0.00 | 68 | 1014.4 |
| 20260507192102 | 53 | 276 | 2.0 | 2.0 | 0.00 | 0.00 | 0.00 | 71 | 1014.4 |
| 20260507191557 | 52 | 153 | 4.0 | 8.0 | 0.00 | 0.00 | 0.00 | 72 | 1014.5 |
| 20260507191055 | 52 | 276 | 3.0 | 6.0 | 0.00 | 0.00 | 0.00 | 74 | 1014.6 |
| 20260507190552 | 51 | 259 | 1.0 | 6.0 | 0.00 | 0.00 | 0.00 | 74 | 1014.7 |
| 20260507190051 | 51 | 294 | 2.0 | 6.0 | 0.00 | 0.00 | 0.00 | 74 | 1015.1 |
| 20260507185549 | 51 | 273 | 3.0 | 4.0 | 0.00 | 0.00 | 0.00 | 75 | 1015.0 |
| 20260507185045 | 51 | 305 | 2.0 | 6.0 | 0.00 | 0.00 | 0.00 | 73 | 1014.7 |
| 20260507184543 | 51 | 253 | 3.0 | 7.0 | 0.00 | 0.00 | 0.00 | 73 | 1015.2 |
| 20260507184041 | 51 | 199 | 6.0 | 9.0 | 0.00 | 0.00 | 0.00 | 73 | 1015.0 |
| 20260507183536 | 51 | 352 | 3.0 | 9.0 | 0.00 | 0.00 | 0.00 | 72 | 1015.0 |
| 20260507183034 | 52 | 272 | 8.0 | 9.0 | 0.00 | 0.00 | 0.00 | 70 | 1014.7 |
| 20260507182530 | 53 | 300 | 4.0 | 8.0 | 0.00 | 0.00 | 0.00 | 71 | 1014.8 |
| 20260507182026 | 52 | 244 | 4.0 | 8.0 | 0.00 | 0.00 | 0.00 | 68 | 1014.7 |
| 20260507181523 | 52 | 237 | 7.0 | 9.0 | 0.00 | 0.00 | 0.00 | 69 | 1014.5 |
| 20260507181019 | 51 | 250 | 2.0 | 4.0 | 0.00 | 0.00 | 0.00 | 70 | 1014.6 |
| 20260507180516 | 52 | 277 | 6.0 | 7.0 | 0.00 | 0.00 | 0.00 | 67 | 1015.0 |
| 20260507180013 | 53 | 311 | 6.0 | 7.0 | 0.00 | 0.00 | 0.00 | 67 | 1014.6 |
| 20260507175509 | 54 | 88 | 1.0 | 6.0 | 0.00 | 0.00 | 0.00 | 64 | 1014.7 |
| 20260507175007 | 54 | 245 | 3.0 | 8.0 | 0.00 | 0.00 | 0.00 | 64 | 1015.1 |
| 20260507174503 | 55 | 307 | 7.0 | 11.0 | 0.00 | 0.00 | 0.00 | 67 | 1015.0 |
| 20260507174001 | 54 | 279 | 4.0 | 7.0 | 0.00 | 0.00 | 0.00 | 62 | 1015.0 |
| 20260507173458 | 54 | 308 | 2.0 | 8.0 | 0.00 | 0.00 | 0.00 | 65 | 1015.0 |
| 20260507172955 | 52 | 161 | 1.0 | 4.0 | 0.00 | 0.00 | 0.00 | 68 | 1014.8 |
| 20260507172451 | 52 | 212 | 1.0 | 2.0 | 0.00 | 0.00 | 0.00 | 68 | 1015.0 |
| 20260507171948 | 51 | 200 | 4.0 | 7.0 | 0.00 | 0.00 | 0.00 | 67 | 1015.1 |
| 20260507171443 | 51 | 227 | 4.0 | 9.0 | 0.00 | 0.00 | 0.00 | 69 | 1014.8 |
| 20260507170941 | 51 | 172 | 4.0 | 10.0 | 0.00 | 0.00 | 0.00 | 67 | 1015.1 |
| 20260507170437 | 52 | 263 | 2.0 | 3.0 | 0.00 | 0.00 | 0.00 | 67 | 1015.2 |
| 20260507165934 | 51 | 131 | 2.0 | 7.0 | 0.00 | 0.00 | 0.00 | 69 | 1015.0 |
| 20260507165430 | 51 | 286 | 4.0 | 4.0 | 0.00 | 0.00 | 0.00 | 68 | 1015.0 |
| 20260507164926 | 51 | 215 | 2.0 | 7.0 | 0.00 | 0.00 | 0.00 | 70 | 1015.3 |
| 20260507164423 | 51 | 234 | 4.0 | 4.0 | 0.00 | 0.00 | 0.00 | 70 | 1015.4 |
| 20260507163920 | 51 | 346 | 1.0 | 4.0 | 0.00 | 0.00 | 0.00 | 67 | 1015.2 |
| 20260507163417 | 51 | 292 | 2.0 | 6.0 | 0.00 | 0.00 | 0.00 | 71 | 1015.0 |
| 20260507162914 | 52 | 233 | 2.0 | 3.0 | 0.00 | 0.00 | 0.00 | 66 | 1015.3 |
| 20260507162409 | 52 | 291 | 1.0 | 4.0 | 0.00 | 0.00 | 0.00 | 66 | 1015.2 |
| 20260507161907 | 52 | 280 | 3.0 | 3.0 | 0.00 | 0.00 | 0.00 | 67 | 1015.4 |
| 20260507161403 | 50 | 300 | 3.0 | 3.0 | 0.00 | 0.00 | 0.00 | 70 | 1015.4 |
| 20260507160900 | 50 | 282 | 5.0 | 7.0 | 0.00 | 0.00 | 0.00 | 70 | 1015.3 |
| 20260507160355 | 51 | 304 | 1.0 | 4.0 | 0.00 | 0.00 | 0.00 | 70 | 1015.4 |
| 20260507155852 | 51 | 320 | 0.0 | 2.0 | 0.00 | 0.00 | 0.00 | 71 | 1015.5 |
| 20260507155348 | 49 | 317 | 1.0 | 6.0 | 0.00 | 0.00 | 0.00 | 72 | 1015.4 |
| 20260507154845 | 50 | 244 | 2.0 | 3.0 | 0.00 | 0.00 | 0.00 | 75 | 1015.6 |
| 20260507154342 | 50 | 264 | 4.0 | 7.0 | 0.00 | 0.00 | 0.00 | 73 | 1015.5 |
| 20260507153839 | 50 | 317 | 3.0 | 4.0 | 0.00 | 0.00 | 0.00 | 73 | 1015.6 |
| 20260507153335 | 49 | 40 | 3.0 | 7.0 | 0.00 | 0.00 | 0.00 | 74 | 1015.6 |
| 20260507152832 | 49 | 276 | 6.0 | 8.0 | 0.00 | 0.00 | 0.00 | 74 | 1015.4 |
| 20260507152328 | 50 | 330 | 3.0 | 6.0 | 0.00 | 0.00 | 0.00 | 74 | 1015.5 |
| 20260507151825 | 49 | 339 | 2.0 | 6.0 | 0.00 | 0.00 | 0.00 | 76 | 1015.5 |
| 20260507151321 | 48 | 271 | 3.0 | 7.0 | 0.00 | 0.00 | 0.00 | 74 | 1015.5 |
| 20260507150818 | 48 | 313 | 2.0 | 3.0 | 0.00 | 0.00 | 0.00 | 77 | 1015.7 |
| 20260507150314 | 48 | 291 | 4.0 | 6.0 | 0.00 | 0.00 | 0.00 | 80 | 1015.6 |
| 20260507145810 | 47 | 263 | 1.0 | 7.0 | 0.00 | 0.00 | 0.00 | 79 | 1015.8 |
| 20260507145307 | 48 | 258 | 4.0 | 6.0 | 0.00 | 0.00 | 0.00 | 81 | 1015.7 |
| 20260507144804 | 47 | 244 | 0.0 | 4.0 | 0.00 | 0.00 | 0.00 | 81 | 1015.6 |
| 20260507144301 | 48 | 276 | 4.0 | 6.0 | 0.00 | 0.00 | 0.00 | 80 | 1015.6 |
| 20260507143758 | 48 | 263 | 3.0 | 4.0 | 0.00 | 0.00 | 0.00 | 80 | 1015.6 |
| 20260507143255 | 47 | 26 | 1.0 | 4.0 | 0.00 | 0.00 | 0.00 | 81 | 1015.5 |
| 20260507142751 | 47 | 297 | 3.0 | 4.0 | 0.00 | 0.00 | 0.00 | 81 | 1015.8 |
| 20260507142248 | 47 | 278 | 4.0 | 6.0 | 0.00 | 0.00 | 0.00 | 84 | 1015.8 |
| 20260507141744 | 47 | 284 | 2.0 | 6.0 | 0.00 | 0.00 | 0.00 | 86 | 1015.6 |
| 20260507141241 | 47 | 234 | 1.0 | 3.0 | 0.00 | 0.00 | 0.00 | 87 | 1015.9 |
| 20260507140737 | 46 | 331 | 3.0 | 4.0 | 0.00 | 0.00 | 0.00 | 88 | 1015.7 |
| 20260507140235 | 47 | 281 | 5.0 | 6.0 | 0.00 | 0.00 | 0.00 | 89 | 1015.9 |
| 20260507135732 | 46 | 297 | 2.0 | 3.0 | 0.00 | 0.00 | 0.00 | 90 | 1015.7 |
| 20260507135229 | 46 | 279 | 1.0 | 2.0 | 0.00 | 0.00 | 0.00 | 91 | 1015.8 |
| 20260507134725 | 46 | 299 | 1.0 | 3.0 | 0.00 | 0.00 | 0.00 | 91 | 1016.1 |
| 20260507134222 | 45 | 235 | 1.0 | 3.0 | 0.00 | 0.00 | 0.00 | 92 | 1016.0 |
| 20260507133718 | 46 | 251 | 1.0 | 3.0 | 0.00 | 0.00 | 0.00 | 92 | 1016.3 |
| 20260507133215 | 46 | 241 | 1.0 | 3.0 | 0.00 | 0.00 | 0.00 | 92 | 1016.3 |
| 20260507132712 | 45 | 281 | 2.0 | 4.0 | 0.00 | 0.00 | 0.00 | 92 | 1016.1 |
| 20260507132208 | 45 | 270 | 1.0 | 2.0 | 0.00 | 0.00 | 0.00 | 94 | 1016.3 |
| 20260507131705 | 45 | 267 | 1.0 | 2.0 | 0.00 | 0.00 | 0.00 | 93 | 1016.0 |
| 20260507131203 | 45 | 281 | 2.0 | 4.0 | 0.00 | 0.00 | 0.00 | 93 | 1016.3 |
| 20260507130659 | 45 | 274 | 0.0 | 3.0 | 0.00 | 0.00 | 0.00 | 95 | 1016.1 |
| 20260507130157 | 44 | 292 | 2.0 | 4.0 | 0.00 | 0.00 | 0.00 | 95 | 1016.1 |
| 20260507125656 | 44 | 295 | 1.0 | 2.0 | 0.00 | 0.00 | 0.00 | 96 | 1016.0 |
| 20260507125153 | 44 | 296 | 2.0 | 3.0 | 0.00 | 0.00 | 0.00 | 96 | 1016.3 |
| 20260507124649 | 44 | 229 | 0.0 | 1.0 | 0.00 | 0.00 | 0.00 | 97 | 1016.4 |
| 20260507124147 | 44 | 294 | 0.0 | 0.0 | 0.00 | 0.00 | 0.00 | 97 | 1016.4 |
| 20260507123645 | 44 | 295 | 1.0 | 2.0 | 0.00 | 0.00 | 0.00 | 97 | 1016.4 |
| 20260507123142 | 44 | 268 | 2.0 | 2.0 | 0.00 | 0.00 | 0.00 | 98 | 1016.4 |
| 20260507122637 | 44 | 255 | 1.0 | 2.0 | 0.00 | 0.00 | 0.00 | 98 | 1016.5 |
| 20260507122133 | 44 | 280 | 3.0 | 3.0 | 0.00 | 0.00 | 0.00 | 98 | 1016.3 |
| 20260507121629 | 44 | 300 | 1.0 | 2.0 | 0.00 | 0.00 | 0.00 | 99 | 1016.0 |
| 20260507121125 | 44 | 229 | 2.0 | 2.0 | 0.00 | 0.00 | 0.00 | 99 | 1015.9 |
| 20260507120621 | 44 | 274 | 2.0 | 3.0 | 0.00 | 0.00 | 0.00 | 99 | 1016.1 |
| 20260507120118 | 44 | 227 | 0.0 | 2.0 | 0.00 | 0.00 | 0.00 | 99 | 1015.9 |
| 20260507115615 | 44 | 264 | 0.0 | 2.0 | 0.00 | 0.00 | 0.00 | 99 | 1015.9 |
| 20260507115110 | 44 | 275 | 1.0 | 2.0 | 0.00 | 0.00 | 0.00 | 99 | 1015.9 |
| 20260507114606 | 43 | 252 | 1.0 | 3.0 | 0.00 | 0.00 | 0.00 | 99 | 1015.8 |
| 20260507114104 | 43 | 302 | 2.0 | 2.0 | 0.00 | 0.00 | 0.00 | 99 | 1015.9 |
| 20260507113601 | 44 | 249 | 1.0 | 1.0 | 0.00 | 0.00 | 0.00 | 99 | 1016.0 |
| 20260507113058 | 44 | 254 | 1.0 | 2.0 | 0.00 | 0.00 | 0.00 | 99 | 1015.8 |
| 20260507112556 | 44 | 255 | 1.0 | 2.0 | 0.00 | 0.00 | 0.00 | 99 | 1015.8 |
| 20260507112052 | 44 | 226 | 0.0 | 0.0 | 0.00 | 0.00 | 0.00 | 99 | 1015.9 |
| 20260507111549 | 44 | 313 | 0.0 | 1.0 | 0.00 | 0.00 | 0.00 | 99 | 1015.5 |
| 20260507111046 | 44 | 329 | 1.0 | 3.0 | 0.00 | 0.00 | 0.00 | 99 | 1015.4 |
| 20260507110542 | 44 | 271 | 2.0 | 3.0 | 0.00 | 0.00 | 0.00 | 99 | 1015.6 |
| 20260507110039 | 44 | 257 | 2.0 | 4.0 | 0.00 | 0.00 | 0.00 | 99 | 1015.7 |
| 20260507105536 | 44 | 265 | 2.0 | 2.0 | 0.00 | 0.00 | 0.00 | 99 | 1015.6 |
| 20260507105032 | 44 | 267 | 0.0 | 2.0 | 0.00 | 0.00 | 0.00 | 99 | 1015.5 |
| 20260507104530 | 44 | 246 | 2.0 | 6.0 | 0.00 | 0.00 | 0.00 | 99 | 1015.4 |
| 20260507104026 | 44 | 263 | 0.0 | 3.0 | 0.00 | 0.00 | 0.00 | 99 | 1015.6 |
| 20260507103522 | 44 | 262 | 1.0 | 4.0 | 0.00 | 0.00 | 0.00 | 99 | 1015.2 |
| 20260507103019 | 44 | 286 | 4.0 | 4.0 | 0.00 | 0.00 | 0.00 | 99 | 1015.3 |
| 20260507102516 | 44 | 286 | 1.0 | 2.0 | 0.00 | 0.00 | 0.00 | 99 | 1015.5 |